Tillbaka till svenska Fidonet
English   Information   Debug  
FILM   0/18
FNEWS_PUBLISH   4926
FN_SYSOP   42201
FN_SYSOP_OLD1   71952
FTP_FIDO   0/2
FTSC_PUBLIC   0/13972
FUNNY   0/4886
GENEALOGY.EUR   0/71
GET_INFO   105
GOLDED   0/408
HAM   5984/16660
HOLYSMOKE   0/6791
HOT_SITES   0/1
HTMLEDIT   0/71
HUB203   466
HUB_100   264
HUB_400   39
HUMOR   0/29
IC   0/2851
INTERNET   0/424
INTERUSER   0/3
IP_CONNECT   719
JAMNNTPD   0/233
JAMTLAND   0/47
KATTY_KORNER   0/41
LAN   0/16
LINUX-USER   0/19
LINUXHELP   0/1155
LINUX   0/22300
LINUX_BBS   0/957
mail   18.68
mail_fore_ok   249
MENSA   0/341
MODERATOR   0/102
MONTE   0/992
MOSCOW_OKLAHOMA   0/1245
MUFFIN   0/783
MUSIC   0/321
N203_STAT   938
N203_SYSCHAT   313
NET203   321
NET204   69
NET_DEV   0/10
NORD.ADMIN   0/101
NORD.CHAT   0/2572
NORD.FIDONET   189
NORD.HARDWARE   0/28
NORD.KULTUR   0/114
NORD.PROG   0/32
NORD.SOFTWARE   0/88
NORD.TEKNIK   0/58
NORD   0/453
OCCULT_CHAT   0/93
OS2BBS   0/787
OS2DOSBBS   0/580
OS2HW   0/42
OS2INET   0/37
OS2LAN   0/134
OS2PROG   0/36
OS2REXX   0/113
OS2USER-L   207
OS2   0/4830
OSDEBATE   0/18996
PASCAL   0/490
PERL   0/457
PHP   0/45
POINTS   0/405
POLITICS   0/29554
POL_INC   0/14731
PSION   103
R20_ADMIN   1133
R20_AMATORRADIO   0/2
R20_BEST_OF_FIDONET   16
R20_CHAT   0/896
R20_DEPP   0/3
R20_DEV   400
R20_ECHO2   1831
R20_ECHOPRES   0/35
R20_ESTAT   0/719
R20_FIDONETPROG...
...RAM.MYPOINT
  0/2
R20_FIDONETPROGRAM   0/22
R20_FIDONET   0/248
R20_FILEFIND   0/24
R20_FILEFOUND   0/22
R20_HIFI   0/3
R20_INFO2   3723
R20_INTERNET   0/12940
R20_INTRESSE   0/60
R20_INTR_KOM   0/99
R20_KANDIDAT.CHAT   42
R20_KANDIDAT   28
R20_KOM_DEV   112
R20_KONTROLL   0/13360
R20_KORSET   0/18
R20_LOKALTRAFIK   0/24
R20_MODERATOR   0/1852
R20_NC   76
R20_NET200   245
R20_NETWORK.OTH...
...ERNETS
  0/13
R20_OPERATIVSYS...
...TEM.LINUX
  0/44
R20_PROGRAMVAROR   0/1
R20_REC2NEC   534
R20_SFOSM   0/341
R20_SF   0/108
R20_SPRAK.ENGLISH   0/1
R20_SQUISH   107
R20_TEST   2
R20_WORST_OF_FIDONET   20
RAR   0/9
RA_MULTI   106
RA_UTIL   0/162
REGCON.EUR   0/2068
REGCON   0/13
SCIENCE   0/1206
SF   0/239
SHAREWARE_SUPPORT   0/5146
SHAREWRE   0/14
SIMPSONS   0/169
STATS_OLD1   0/2539.065
STATS_OLD2   0/2530
STATS_OLD3   0/2395.095
STATS_OLD4   0/1692.25
SURVIVOR   0/495
SYSOPS_CORNER   0/3
SYSOP   0/84
TAGLINES   0/112
TEAMOS2   0/4530
TECH   0/2617
TEST.444   0/105
TRAPDOOR   0/19
TREK   0/755
TUB   0/290
UFO   0/40
UNIX   0/1316
USA_EURLINK   0/102
USR_MODEMS   0/1
VATICAN   0/2740
VIETNAM_VETS   0/14
VIRUS   0/378
VIRUS_INFO   0/201
VISUAL_BASIC   0/473
WHITEHOUSE   0/5187
WIN2000   0/101
WIN32   0/30
WIN95   0/4291
WIN95_OLD1   0/70272
WINDOWS   0/1517
WWB_SYSOP   0/419
WWB_TECH   0/810
ZCC-PUBLIC   0/1
ZEC   4

 
4DOS   0/134
ABORTION   0/7
ALASKA_CHAT   0/506
ALLFIX_FILE   0/1313
ALLFIX_FILE_OLD1   0/7997
ALT_DOS   0/152
AMATEUR_RADIO   0/1039
AMIGASALE   0/14
AMIGA   0/331
AMIGA_INT   0/1
AMIGA_PROG   0/20
AMIGA_SYSOP   0/26
ANIME   0/15
ARGUS   0/924
ASCII_ART   0/340
ASIAN_LINK   0/651
ASTRONOMY   0/417
AUDIO   0/92
AUTOMOBILE_RACING   0/105
BABYLON5   0/17862
BAG   135
BATPOWER   0/361
BBBS.ENGLISH   0/382
BBSLAW   0/109
BBS_ADS   0/5290
BBS_INTERNET   0/507
BIBLE   0/3563
BINKD   0/1119
BINKLEY   0/215
BLUEWAVE   0/2173
CABLE_MODEMS   0/25
CBM   0/46
CDRECORD   0/66
CDROM   0/20
CLASSIC_COMPUTER   0/378
COMICS   0/15
CONSPRCY   0/899
COOKING   41444
COOKING_OLD1   0/24719
COOKING_OLD2   0/40862
COOKING_OLD3   0/37489
COOKING_OLD4   0/35496
COOKING_OLD5   9370
C_ECHO   0/189
C_PLUSPLUS   0/31
DIRTY_DOZEN   0/201
DOORGAMES   0/2285
DOS_INTERNET   0/196
duplikat   6102
ECHOLIST   0/18295
EC_SUPPORT   0/318
ELECTRONICS   0/359
ELEKTRONIK.GER   1534
ENET.LINGUISTIC   0/13
ENET.POLITICS   0/4
ENET.SOFT   0/11701
ENET.SYSOP   34296
ENET.TALKS   0/32
ENGLISH_TUTOR   0/2000
EVOLUTION   0/1335
FDECHO   0/217
FDN_ANNOUNCE   0/7068
FIDONEWS   25062
FIDONEWS_OLD1   0/49742
FIDONEWS_OLD2   0/35949
FIDONEWS_OLD3   0/30874
FIDONEWS_OLD4   0/37224
FIDO_SYSOP   12922
FIDO_UTIL   0/180
FILEFIND   0/209
FILEGATE   0/212
Möte HAM, 16660 texter
 lista första sista föregående nästa
Text 3034, 787 rader
Skriven 2009-06-18 23:30:20 av Amsat List (1:323/120.0)
Ärende: [keps]  orb09169.amsa
=============================
[keps]  orb09169.amsa

Return-Path: <keps-bounces@amsat.org>
X-Rcpt: craig.healy@chowda.com
X-UIDL: 1245381827.17571

SB KEPS @ AMSAT  $ORB09169.O
Orbital Elements  09169.OSCAR

HR AMSAT ORBITAL ELEMENTS FOR OSCAR SATELLITES
FROM WA5QGD FORT WORTH,TX June 18, 2009
Send Subscribe/unsubscribe to KEPS at 
http://www.amsat.org/mailman/listinfo/keps
BID: ORB09169.O
TO ALL RADIO AMATEURS BT

Satellite: AO-07
Catalog number: 07530
Epoch time:      09168.80699255
Element set:    0507
Inclination:      101.4259 deg
RA of node:       193.4604 deg
Eccentricity:    0.0011483
Arg of perigee:   267.4660 deg
Mean anomaly:     092.5088 deg
Mean motion:   12.53575804 rev/day
Decay rate:       -2.7e-07 rev/day^2
Epoch rev:           58279
Checksum:              323

Satellite: FO-29
Catalog number: 24278
Epoch time:      09168.66830070
Element set:    0087
Inclination:      098.5541 deg
RA of node:       042.6392 deg
Eccentricity:    0.0350935
Arg of perigee:   349.3062 deg
Mean anomaly:     010.0749 deg
Mean motion:   13.52944165 rev/day
Decay rate:       -1.0e-08 rev/day^2
Epoch rev:           63381
Checksum:              309

Satellite: SO-33
Catalog number: 25509
Epoch time:      09168.75442445
Element set:    0478
Inclination:      031.4348 deg
RA of node:       049.2727 deg
Eccentricity:    0.0355124
Arg of perigee:   343.4318 deg
Mean anomaly:     015.5057 deg
Mean motion:   14.28253698 rev/day
Decay rate:       2.07e-06 rev/day^2
Epoch rev:           55591
Checksum:              320

Satellite: RS-22
Catalog number: 27939
Epoch time:      09168.60884170
Element set:    0818
Inclination:      097.9449 deg
RA of node:       043.4633 deg
Eccentricity:    0.0014447
Arg of perigee:   128.3044 deg
Mean anomaly:     231.9461 deg
Mean motion:   14.63323318 rev/day
Decay rate:        6.1e-07 rev/day^2
Epoch rev:           30563
Checksum:              311

Satellite: VO-52
Catalog number: 28650
Epoch time:      09168.58974510
Element set:    0251
Inclination:      097.7430 deg
RA of node:       230.1584 deg
Eccentricity:    0.0027864
Arg of perigee:   030.6884 deg
Mean anomaly:     329.5960 deg
Mean motion:   14.81592825 rev/day
Decay rate:      -1.27e-06 rev/day^2
Epoch rev:           22270
Checksum:              321

/EX
SB KEPS @ AMSAT  $ORB09169.D
Orbital Elements  09169.MICROS

HR AMSAT ORBITAL ELEMENTS FOR THE MICROSATS
FROM WA5QGD FORT WORTH,TX June 18, 2009
Send Subscribe/unsubscribe to KEPS at 
http://www.amsat.org/mailman/listinfo/keps
BID: ORB09169.D
TO ALL RADIO AMATEURS BT

Satellite: AO-16
Catalog number: 20439
Epoch time:      09168.90284975
Element set:    0630
Inclination:      098.2778 deg
RA of node:       137.2716 deg
Eccentricity:    0.0010872
Arg of perigee:   163.7834 deg
Mean anomaly:     196.3702 deg
Mean motion:   14.31826267 rev/day
Decay rate:       -1.0e-07 rev/day^2
Epoch rev:           01325
Checksum:              312

Satellite: LO-19
Catalog number: 20442
Epoch time:      09168.61036070
Element set:    0549
Inclination:      098.2409 deg
RA of node:       144.2540 deg
Eccentricity:    0.0012294
Arg of perigee:   161.6339 deg
Mean anomaly:     198.5291 deg
Mean motion:   14.32061355 rev/day
Decay rate:      -1.20e-06 rev/day^2
Epoch rev:           01337
Checksum:              279

Satellite: AO-27
Catalog number: 22825
Epoch time:      09168.91567913
Element set:    0270
Inclination:      098.4359 deg
RA of node:       122.3159 deg
Eccentricity:    0.0007469
Arg of perigee:   260.4711 deg
Mean anomaly:     099.5640 deg
Mean motion:   14.29267246 rev/day
Decay rate:       -5.7e-07 rev/day^2
Epoch rev:           82001
Checksum:              321

Satellite: IO-26
Catalog number: 22826
Epoch time:      09168.83575997
Element set:    0997
Inclination:      098.4300 deg
RA of node:       122.9870 deg
Eccentricity:    0.0007996
Arg of perigee:   258.3677 deg
Mean anomaly:     101.6617 deg
Mean motion:   14.29519670 rev/day
Decay rate:        5.0e-08 rev/day^2
Epoch rev:           82010
Checksum:              346

Satellite: GO-32
Catalog number: 25397
Epoch time:      09168.70536541
Element set:    0920
Inclination:      098.3265 deg
RA of node:       191.0183 deg
Eccentricity:    0.0000399
Arg of perigee:   209.8811 deg
Mean anomaly:     150.2332 deg
Mean motion:   14.23159401 rev/day
Decay rate:      -1.44e-06 rev/day^2
Epoch rev:           56820
Checksum:              290

Satellite: NO-44
Catalog number: 26931
Epoch time:      09168.77413924
Element set:    0196
Inclination:      067.0528 deg
RA of node:       062.8327 deg
Eccentricity:    0.0005596
Arg of perigee:   272.0469 deg
Mean anomaly:     087.9968 deg
Mean motion:   14.29560040 rev/day
Decay rate:       1.17e-06 rev/day^2
Epoch rev:           40266
Checksum:              332

Satellite: SO-50
Catalog number: 27607
Epoch time:      09168.59575225
Element set:    0912
Inclination:      064.5582 deg
RA of node:       023.8492 deg
Eccentricity:    0.0067242
Arg of perigee:   205.6162 deg
Mean anomaly:     154.1628 deg
Mean motion:   14.71441897 rev/day
Decay rate:       -2.5e-07 rev/day^2
Epoch rev:           34873
Checksum:              321

Satellite: CO-55
Catalog number: 27844
Epoch time:      09168.69648319
Element set:    0603
Inclination:      098.7119 deg
RA of node:       177.8542 deg
Eccentricity:    0.0010586
Arg of perigee:   137.1511 deg
Mean anomaly:     223.0488 deg
Mean motion:   14.20642459 rev/day
Decay rate:        3.2e-07 rev/day^2
Epoch rev:           30933
Checksum:              320

